Tracking 20083 objects as of 9-Dec-2019
HD Live streaming from Space Station
objects crossing your sky now

COSMOS 2251 DEB

Track COSMOS 2251 DEB now!
10-day predictions


NORAD ID: 35038
Int'l Code: 1993-036AHB
Perigee: 759.3 km
Apogee: 971.3 km
Inclination: 74.1 °
Period: 102.1 minutes
Semi major axis: 7236 km
RCS: 0.0088 m2 (small)
Launch date: June 16, 1993
Source: Commonwealth of Independent States (former USSR) (CIS)
Launch site: PLESETSK MISSILE AND SPACE COMPLEX (PKMTR)

Note: This is SATELLITE DEBRIS
aabbcc
Your satellite tracking list
Your tracking list is empty




NASA's NSSDC Master Catalog

Two Line Element Set (TLE):
1 35038U 93036AHB 19342.68052178 +.00000451 +00000-0 +24202-3 0  9999
2 35038 074.0795 324.0269 0146495 150.2458 323.8012 14.10352507545048
Source of the keplerian elements: AFSPC